When you browse on this site, cookies collect data to enhance your experience and personalize the content and advertising you see.
Visit our Privacy Policy to learn more. By continuing to use the site, you agree to this use of cookies and data.
  • In United Kingdom
  • List of Countries
  • For 7 days
  • Water Temperature
  • Satellite Maps
  • Weather Map
  • Weather Widgets
  • user-avatar
    Login

    Hourly Weather Biskira

    Today, 19 December, Wednesday

    Time Temperature Precipitation Wind Pressure Humidity
    00:00 +12°C° 0 mm 1 mps 761 mmHg 54%
    01:00 +12°C° 0 mm 1 mps 761 mmHg 55%
    02:00 +11°C° 0 mm 1 mps 760 mmHg 57%
    03:00 +11°C° 0 mm 1 mps 760 mmHg 58%
    04:00 +11°C° 0 mm 1 mps 760 mmHg 59%
    05:00 +10°C° 0 mm 1 mps 760 mmHg 60%
    06:00 +10°C° 0 mm 1 mps 760 mmHg 62%
    07:00 +12°C° 0 mm 1 mps 760 mmHg 57%
    08:00 +13°C° 0 mm 1 mps 760 mmHg 52%
    09:00 +15°C° 0 mm 1 mps 760 mmHg 47%
    10:00 +15°C° 0 mm 1 mps 760 mmHg 45%
    11:00 +16°C° 0 mm 1 mps 760 mmHg 43%
    12:00 +18°C° 0 mm 1 mps 759 mmHg 41%
    13:00 +18°C° 0 mm 1 mps 759 mmHg 40%
    14:00 +19°C° 0 mm 1 mps 758 mmHg 40%
    15:00 +19°C° 0 mm 1 mps 758 mmHg 40%
    16:00 +18°C° 0 mm 1 mps 758 mmHg 44%
    17:00 +15°C° 0 mm 0 mps 758 mmHg 49%
    18:00 +13°C° 0 mm 0 mps 758 mmHg 54%
    19:00 +13°C° 0 mm 0 mps 758 mmHg 54%
    20:00 +13°C° 0 mm 0 mps 759 mmHg 54%
    21:00 +13°C° 0 mm 0 mps 759 mmHg 55%
    22:00 +12°C° 0 mm 0 mps 759 mmHg 56%
    23:00 +12°C° 0 mm 0 mps 759 mmHg 56%

    Tomorrow, 20 December, Thursday

    Time Temperature Precipitation Wind Pressure Humidity
    00:00 +12°C° 0 mm 0 mps 759 mmHg 57%
    01:00 +11°C° 0 mm 0 mps 759 mmHg 58%
    02:00 +11°C° 0 mm 0 mps 759 mmHg 58%
    03:00 +11°C° 0 mm 0 mps 758 mmHg 59%
    04:00 +11°C° 0 mm 0 mps 758 mmHg 59%
    05:00 +11°C° 0 mm 0 mps 759 mmHg 59%
    06:00 +10°C° 0 mm 0 mps 759 mmHg 59%
    07:00 +12°C° 0 mm 0 mps 759 mmHg 54%
    08:00 +14°C° 0 mm 0 mps 759 mmHg 48%
    09:00 +16°C° 0 mm 0 mps 760 mmHg 43%
    10:00 +18°C° 0 mm 1 mps 759 mmHg 41%
    11:00 +19°C° 0 mm 1 mps 759 mmHg 39%
    12:00 +20°C° 0 mm 1 mps 759 mmHg 37%
    13:00 +20°C° 0 mm 1 mps 759 mmHg 38%
    14:00 +20°C° 0 mm 2 mps 758 mmHg 38%
    15:00 +20°C° 0 mm 2 mps 758 mmHg 38%
    16:00 +19°C° 0 mm 2 mps 759 mmHg 42%
    17:00 +18°C° 0 mm 2 mps 759 mmHg 46%
    18:00 +18°C° 0 mm 1 mps 759 mmHg 50%
    19:00 +18°C° 0 mm 1 mps 760 mmHg 50%
    20:00 +16°C° 0 mm 2 mps 760 mmHg 50%
    21:00 +16°C° 0 mm 2 mps 760 mmHg 51%
    22:00 +16°C° 0 mm 2 mps 760 mmHg 52%
    23:00 +15°C° 0 mm 2 mps 761 mmHg 53%

    Day after tomorrow, 21 December, Friday

    Time Temperature Precipitation Wind Pressure Humidity
    00:00 +15°C° 0 mm 2 mps 761 mmHg 55%
    01:00 +15°C° 0 mm 2 mps 761 mmHg 57%
    02:00 +14°C° 0 mm 2 mps 761 mmHg 58%
    03:00 +14°C° 0 mm 2 mps 761 mmHg 60%
    04:00 +14°C° 0 mm 2 mps 761 mmHg 62%
    05:00 +14°C° 0 mm 2 mps 762 mmHg 63%
    06:00 +13°C° 0 mm 2 mps 762 mmHg 65%
    07:00 +14°C° 0 mm 2 mps 762 mmHg 61%
    08:00 +15°C° 0 mm 2 mps 763 mmHg 57%
    09:00 +16°C° 0 mm 1 mps 763 mmHg 53%
    10:00 +18°C° 0 mm 1 mps 763 mmHg 49%
    11:00 +19°C° 0 mm 1 mps 763 mmHg 45%
    12:00 +20°C° 0 mm 1 mps 763 mmHg 41%
    13:00 +20°C° 0 mm 1 mps 763 mmHg 40%
    14:00 +20°C° 0 mm 1 mps 763 mmHg 40%
    15:00 +20°C° 0 mm 1 mps 763 mmHg 39%
    16:00 +19°C° 0 mm 1 mps 763 mmHg 43%
    17:00 +18°C° 0 mm 1 mps 763 mmHg 47%
    18:00 +16°C° 0 mm 1 mps 763 mmHg 51%
    19:00 +14°C° 0 mm 0 mps 764 mmHg 53%
    20:00 +14°C° 0 mm 0 mps 764 mmHg 55%
    21:00 +13°C° 0 mm 0 mps 764 mmHg 57%
    22:00 +13°C° 0 mm 0 mps 764 mmHg 58%
    23:00 +12°C° 0 mm 0 mps 764 mmHg 59%

    22 December, Saturday

    Time Temperature Precipitation Wind Pressure Humidity
    00:00 +12°C° 0 mm 0 mps 764 mmHg 60%
    01:00 +12°C° 0 mm 0 mps 764 mmHg 61%
    02:00 +11°C° 0 mm 0 mps 764 mmHg 63%
    03:00 +11°C° 0 mm 0 mps 764 mmHg 64%
    04:00 +11°C° 0 mm 0 mps 764 mmHg 65%
    05:00 +11°C° 0 mm 0 mps 764 mmHg 67%
    06:00 +10°C° 0 mm 0 mps 764 mmHg 68%
    07:00 +12°C° 0 mm 0 mps 764 mmHg 62%
    08:00 +13°C° 0 mm 0 mps 765 mmHg 56%
    09:00 +15°C° 0 mm 0 mps 765 mmHg 50%
    10:00 +18°C° 0 mm 1 mps 764 mmHg 48%
    11:00 +18°C° 0 mm 1 mps 764 mmHg 46%
    12:00 +18°C° 0 mm 2 mps 764 mmHg 44%
    13:00 +18°C° 0 mm 2 mps 763 mmHg 43%
    14:00 +18°C° 0 mm 2 mps 763 mmHg 43%
    15:00 +19°C° 0 mm 2 mps 763 mmHg 42%
    16:00 +19°C° 0 mm 1 mps 763 mmHg 47%
    17:00 +16°C° 0 mm 1 mps 763 mmHg 51%
    18:00 +15°C° 0 mm 1 mps 763 mmHg 56%
    19:00 +15°C° 0 mm 1 mps 763 mmHg 57%
    20:00 +15°C° 0 mm 1 mps 763 mmHg 59%
    21:00 +14°C° 0 mm 1 mps 763 mmHg 61%
    22:00 +14°C° 0 mm 1 mps 763 mmHg 62%
    23:00 +13°C° 0 mm 1 mps 763 mmHg 63%

    23 December, Sunday

    Time Temperature Precipitation Wind Pressure Humidity
    00:00 +13°C° 0 mm 1 mps 763 mmHg 64%
    01:00 +13°C° 0 mm 1 mps 763 mmHg 65%
    02:00 +13°C° 0 mm 1 mps 762 mmHg 66%
    03:00 +12°C° 0 mm 1 mps 762 mmHg 66%
    04:00 +12°C° 0 mm 1 mps 762 mmHg 66%
    05:00 +12°C° 0 mm 1 mps 762 mmHg 67%
    06:00 +12°C° 0 mm 1 mps 762 mmHg 67%
    07:00 +13°C° 0 mm 1 mps 763 mmHg 60%
    08:00 +15°C° 0 mm 1 mps 763 mmHg 53%
    09:00 +16°C° 0 mm 1 mps 763 mmHg 46%
    10:00 +18°C° 0 mm 1 mps 763 mmHg 43%
    11:00 +19°C° 0 mm 1 mps 762 mmHg 40%
    12:00 +20°C° 0 mm 1 mps 762 mmHg 37%
    13:00 +21°C° 0 mm 1 mps 762 mmHg 36%
    14:00 +21°C° 0 mm 1 mps 761 mmHg 35%
    15:00 +21°C° 0 mm 1 mps 761 mmHg 34%
    16:00 +20°C° 0 mm 1 mps 761 mmHg 39%
    17:00 +18°C° 0 mm 1 mps 761 mmHg 43%
    18:00 +16°C° 0 mm 1 mps 761 mmHg 48%
    19:00 +15°C° 0 mm 1 mps 761 mmHg 48%
    20:00 +15°C° 0 mm 1 mps 761 mmHg 48%
    21:00 +15°C° 0 mm 1 mps 762 mmHg 48%
    22:00 +14°C° 0 mm 1 mps 761 mmHg 48%
    23:00 +14°C° 0 mm 1 mps 761 mmHg 48%

    24 December, Monday

    Time Temperature Precipitation Wind Pressure Humidity
    00:00 +14°C° 0 mm 1 mps 761 mmHg 48%
    01:00 +13°C° 0 mm 1 mps 761 mmHg 48%
    02:00 +13°C° 0 mm 1 mps 761 mmHg 48%
    03:00 +13°C° 0 mm 1 mps 761 mmHg 48%
    04:00 +12°C° 0 mm 1 mps 761 mmHg 48%
    05:00 +12°C° 0 mm 1 mps 760 mmHg 48%
    06:00 +12°C° 0 mm 1 mps 760 mmHg 48%
    07:00 +14°C° 0 mm 1 mps 761 mmHg 43%
    08:00 +16°C° 0 mm 1 mps 761 mmHg 38%
    09:00 +19°C° 0 mm 1 mps 761 mmHg 33%
    10:00 +20°C° 0 mm 1 mps 761 mmHg 31%
    11:00 +21°C° 0 mm 1 mps 760 mmHg 29%
    12:00 +22°C° 0 mm 1 mps 760 mmHg 26%
    13:00 +22°C° 0 mm 1 mps 759 mmHg 26%
    14:00 +22°C° 0 mm 1 mps 759 mmHg 26%
    15:00 +21°C° 0 mm 2 mps 759 mmHg 26%
    16:00 +21°C° 0 mm 1 mps 759 mmHg 29%
    17:00 +19°C° 0 mm 1 mps 759 mmHg 33%
    18:00 +16°C° 0 mm 1 mps 759 mmHg 37%
    19:00 +16°C° 0 mm 1 mps 759 mmHg 37%
    20:00 +16°C° 0 mm 1 mps 759 mmHg 37%
    21:00 +15°C° 0 mm 1 mps 760 mmHg 38%
    22:00 +15°C° 0 mm 1 mps 759 mmHg 38%
    23:00 +13°C° 0 mm 0 mps 759 mmHg 38%
    Show more